Location: Unspecified
(40.4667°N, 0.0000°E)
Time: 20:08:23
(UTC+00:00)

ISS - Pass Details

Date: 24 May 2019
Orbit: 407 x 418 km, 51.6° (Epoch: 25 June)

Event Time Altitude Azimuth Distance (km) Brightness Sun altitude
Rises 22:09:04 0° 308° (NW) 2,360 1.1 -23.8°
Reaches altitude 10° 22:12:03 10° 337° (NNW) 1,499 0.1 -24.0°
Maximum altitude 22:13:45 13° 8° (N) 1,321 -0.6 -24.2°
Drops below altitude 10° 22:15:27 10° 38° (NE) 1,501 -0.7 -24.3°
Enters shadow 22:16:17 - 49° (NE) 1,693 -0.5 -24.4°
